Location: Waco, TX
(31.5480°N, 97.1670°W)
Time: 15:52:43
(UTC-05:00)

ISS - Pass Details

Date: 19 September 2019
Orbit: 411 x 421 km, 51.6° (Epoch: 17 September)

Event Time Altitude Azimuth Distance (km) Brightness Sun altitude
Rises 03:02:10 0° 335° (NNW) 2,345 - -49.3°
Reaches altitude 10° 03:05:32 10° 11° (NNE) 1,483 - -48.9°
Maximum altitude 03:06:39 11° 31° (NNE) 1,406 - -48.7°
Drops below altitude 10° 03:07:47 10° 51° (NE) 1,483 - -48.6°
Sets 03:11:09 0° 88° (E) 2,345 - -48.1°
